Location: Marsån
(66.4167°N, 22.2833°E)
Time: 07:48:25
(UTC+00:00)

Cosmos 2341 Rocket - Pass Details

Date: 24 February 2024
Orbit: 968 x 1004 km, 82.9° (Epoch: 21 April)

Event Time Altitude Azimuth Distance (km) Brightness Sun altitude
Rises 23:04:51 0° 341° (NNW) 3,719 7.9 -32.8°
Reaches altitude 10° 23:07:22 10° 342° (NNW) 2,772 7.1 -32.8°
Enters shadow 23:12:53 69° 347° (NNW) 1,071 4.2 -32.7°
